Location: Allonne
(49.4086°N, 2.1143°E)
Time: 07:32:45
(UTC+00:00)

Cosmos 1763 Rocket - Pass Details

Date: 03 February 2023
Orbit: 733 x 778 km, 74.0° (Epoch: 24 March)

Event Time Altitude Azimuth Distance (km) Brightness Sun altitude
Rises 18:16:11 0° 334° (NNW) 3,229 7.0 -14.1°
Reaches altitude 10° 18:18:36 10° 332° (NNW) 2,292 6.2 -14.5°
Maximum altitude 18:23:44 66° 251° (WSW) 821 3.9 -15.4°
Drops below altitude 10° 18:28:46 10° 170° (S) 2,247 5.9 -16.2°
Sets 18:31:06 0° 168° (SSE) 3,161 6.6 -16.5°
